This is the latest recevied weather packets stored in our database for station/object SQ9SMC-13. If no packets are shown the sender has not sent any weather packets the latest 1 day(s).
| Time | Temp. | Humidity | Pressure | Rain* | Wind** | Luminosity | Snow |
|---|---|---|---|---|---|---|---|
| 1777995005 | 27.22° C | 19% | 1008.1 hPa | 0 mm | 1.34 m/s, 37° | 193 W/m² | - |
| 1777994702 | 26.67° C | 20% | 1007.9 hPa | 0 mm | 1.34 m/s, 354° | 127 W/m² | - |
| 1777994403 | 27.78° C | 19% | 1008.2 hPa | 0 mm | 2.24 m/s, 359° | 187 W/m² | - |
| 1777994104 | 27.78° C | 19% | 1008.2 hPa | 0 mm | 1.34 m/s, 22° | 286 W/m² | - |
| 1777993804 | 27.78° C | 20% | 1008.2 hPa | 0 mm | 0.89 m/s, 123° | 302 W/m² | - |
| 1777993503 | 27.78° C | 18% | 1008 hPa | 0 mm | 2.24 m/s, 82° | 311 W/m² | - |
| 1777993204 | 27.78° C | 18% | 1008.3 hPa | 0 mm | 2.24 m/s, 355° | 330 W/m² | - |
| 1777992903 | 27.78° C | 17% | 1008.2 hPa | 0 mm | 1.79 m/s, 6° | 347 W/m² | - |
| 1777992602 | 27.78° C | 17% | 1008.3 hPa | 0 mm | 2.24 m/s, 44° | 345 W/m² | - |
| 1777992303 | 28.33° C | 16% | 1008.3 hPa | 0 mm | 3.13 m/s, 95° | 372 W/m² | - |
| 1777992005 | 27.22° C | 17% | 1008.3 hPa | 0 mm | 1.79 m/s, 99° | 333 W/m² | - |
| 1777991703 | 27.22° C | 16% | 1008.3 hPa | 0 mm | 3.13 m/s, 351° | 137 W/m² | - |
| 1777991403 | 28.33° C | 16% | 1008.3 hPa | 0 mm | 1.34 m/s, 80° | 290 W/m² | - |
| 1777991104 | 28.33° C | 18% | 1008.5 hPa | 0 mm | 0.45 m/s, 89° | 315 W/m² | - |
| 1777990803 | 27.78° C | 19% | 1008.4 hPa | 0 mm | 2.24 m/s, 21° | 266 W/m² | - |
| 1777990504 | 27.78° C | 20% | 1008.5 hPa | 0 mm | 3.13 m/s, 359° | 404 W/m² | - |
| 1777990206 | 27.78° C | 20% | 1008.5 hPa | 0 mm | 1.34 m/s, 87° | 382 W/m² | - |
| 1777989902 | 27.78° C | 20% | 1008.8 hPa | 0 mm | 2.68 m/s, 2° | 419 W/m² | - |
| 1777989603 | 28.33° C | 21% | 1008.7 hPa | 0 mm | 1.34 m/s, 53° | 453 W/m² | - |
| 1777989303 | 27.78° C | 21% | 1008.9 hPa | 0 mm | 2.24 m/s, 39° | 486 W/m² | - |
| 1777989002 | 27.78° C | 21% | 1008.7 hPa | 0 mm | 1.79 m/s, 325° | 495 W/m² | - |
| 1777988703 | 27.22° C | 22% | 1008.8 hPa | 0 mm | 2.24 m/s, 17° | 470 W/m² | - |
| 1777988403 | 26.67° C | 22% | 1009 hPa | 0 mm | 1.34 m/s, 357° | 363 W/m² | - |
| 1777988102 | 26.67° C | 22% | 1008.9 hPa | 0 mm | 0.89 m/s, 2° | 250 W/m² | - |
| 1777987803 | 26.67° C | 22% | 1008.9 hPa | 0 mm | 2.24 m/s, 356° | 216 W/m² | - |
* Rain latest hour (hover to see other rain measurements)
** Current wind speed in m/s (hover to see current wind gust speed)